DW0542 Weather Reports


time (UTC)temp
C
wind
direction
speed
KPH
gust
KPH
rain 1hr
cm
rain 24hr
cm
rain mn
cm
humidity
%
barometer
mb
20260904030021 20 245 0.0 0.0 0.00 1.30 0.00 88 1011.8
20260904024516 20 245 0.0 0.0 0.00 1.30 0.00 88 1011.6
20260904023012 20 245 0.0 0.0 0.00 1.30 0.00 88 1011.6
20260904021521 21 245 0.0 0.0 0.00 1.30 0.00 88 1012.2
20260904020050 21 245 0.0 0.0 0.00 1.30 0.00 88 1012.0
20260904014553 21 245 0.0 0.0 0.00 1.30 0.00 88 1012.0
20260904013048 21 245 0.0 0.0 0.00 1.30 0.00 87 1012.1
20260904011546 21 245 0.0 0.0 0.00 1.30 0.00 87 1012.1
20260904010045 21 245 0.0 0.0 0.00 1.30 0.00 87 1012.1
20260904004545 21 245 0.0 0.0 0.00 1.30 0.00 87 1012.2
20260904003043 21 245 0.0 0.0 0.00 1.30 0.00 87 1011.9
20260904001537 22 245 0.0 0.0 0.00 1.30 0.00 87 1011.8
20260904000048 22 245 0.0 0.0 0.00 1.30 0.00 86 1011.6
20260903234543 22 245 0.0 0.0 0.00 1.30 0.00 86 1011.2
20260903233046 23 245 0.0 0.0 0.00 1.30 0.00 85 1011.2
20260903231536 23 245 0.0 0.0 0.00 1.30 0.00 84 1011.3
20260903230034 24 245 0.0 0.0 0.00 1.30 0.00 81 1011.1
20260903224529 25 245 0.0 0.0 0.00 1.30 0.00 80 1011.2
20260903223024 26 245 0.0 0.0 0.00 1.30 0.00 76 1011.2
20260903221523 26 245 0.0 0.0 0.00 1.30 1.30 77 1011.3
20260903220125 25 245 0.0 0.0 0.00 1.30 1.30 79 1011.4
20260903214528 25 245 0.0 0.0 0.00 1.30 1.30 79 1011.5
20260903213018 25 245 0.0 4.8 0.00 1.30 1.30 78 1011.5
20260903211516 25 249 0.0 0.0 0.00 1.30 1.30 77 1011.3
20260903210047 25 249 0.0 0.0 0.00 1.30 1.30 76 1011.4
20260903204546 25 255 0.0 1.6 0.00 1.30 1.30 77 1011.4
20260903203043 26 276 0.0 6.4 0.00 1.30 1.30 73 1011.4
20260903201542 26 277 0.0 1.6 0.00 1.30 1.30 74 1011.4
20260903200041 26 277 0.0 0.0 0.00 1.30 1.30 74 1011.5
20260903194538 26 277 0.0 0.0 0.00 1.30 1.30 75 1011.7
20260903193032 25 277 0.0 0.0 0.00 1.30 1.30 76 1011.8
20260903191546 25 277 0.0 0.0 0.00 1.30 1.30 75 1011.9
20260903190025 25 277 0.0 0.0 0.00 1.30 1.30 77 1012.1
20260903184533 25 277 0.0 0.0 0.00 1.30 1.30 76 1012.3
20260903183022 24 277 0.0 1.6 0.00 1.30 1.30 75 1012.4
20260903181550 24 277 1.6 8.0 0.00 1.32 1.30 79 1012.4
20260903180052 24 267 0.0 1.6 0.00 1.32 1.30 79 1012.5
20260903174545 23 265 4.8 14.5 0.00 1.32 1.30 80 1012.5
20260903173042 23 259 0.0 0.0 0.00 1.32 1.30 81 1012.8
20260903171541 23 201 0.0 0.0 0.00 1.32 1.30 81 1012.7
20260903170040 23 203 0.0 14.5 0.00 1.32 1.30 81 1013.0
20260903164535 23 209 1.6 14.5 0.00 1.32 1.30 83 1013.1
20260903163033 22 241 0.0 11.3 0.00 1.32 1.30 85 1013.0
20260903161527 22 281 4.8 12.9 0.00 1.32 1.30 86 1013.1
20260903160024 21 241 1.6 9.7 0.00 1.32 1.30 88 1013.1
20260903153016 20 299 0.0 1.6 0.00 1.32 1.30 89 1013.3
20260903151515 20 299 0.0 6.4 0.00 1.32 1.30 89 1013.4
20260903150019 20 299 0.0 6.4 0.00 1.32 1.30 90 1013.5
20260903144509 20 301 0.0 4.8 0.00 1.32 1.30 90 1013.6
20260903143009 19 301 0.0 0.0 0.00 1.32 1.30 90 1013.8
20260903141509 18 302 0.0 0.0 0.00 1.32 1.30 90 1014.2
20260903140005 18 302 0.0 0.0 0.00 1.32 1.30 90 1014.3
20260903134600 18 302 0.0 0.0 0.00 1.32 1.30 90 1014.4
20260903133109 18 301 0.0 0.0 0.00 1.32 1.30 90 1014.5
20260903131608 17 302 0.0 0.0 0.00 1.32 1.30 90 1014.5
20260903130112 17 301 0.0 0.0 0.00 1.32 1.30 90 1014.6
20260903124552 17 301 0.0 0.0 0.00 1.32 1.30 90 1014.6
20260903123050 17 302 0.0 0.0 0.00 1.32 1.30 89 1014.8
20260903121549 17 301 0.0 0.0 0.00 1.32 1.30 90 1014.8
20260903120049 17 301 0.0 0.0 0.00 1.32 1.30 89 1015.1
20260903114636 17 301 0.0 0.0 0.00 1.32 1.30 89 1015.3
20260903113041 17 301 0.0 0.0 0.00 1.32 1.30 89 1015.4
20260903111518 17 301 0.0 0.0 0.00 1.32 1.30 89 1015.3
20260903110015 17 301 0.0 0.0 0.00 1.32 1.30 89 1015.0
20260903104514 17 301 0.0 0.0 0.03 1.32 1.30 89 1015.0
20260903103013 17 302 0.0 6.4 0.03 1.32 1.30 89 1015.0
20260903101543 17 302 0.0 9.7 0.03 1.32 1.30 89 1014.9
20260903100042 17 281 6.4 12.9 0.05 1.32 1.30 89 1014.9
20260903094538 17 118 0.0 1.6 0.03 1.30 1.27 89 1014.8
20260903093042 17 117 0.0 6.4 0.03 1.30 1.27 89 1014.7
20260903091539 16 108 0.0 0.0 0.03 1.30 1.27 89 1015.1
20260903090040 16 108 0.0 0.0 0.03 1.27 1.24 89 1015.1
20260903084532 16 107 0.0 0.0 0.33 1.27 1.24 89 1015.1
20260903083132 16 107 0.0 0.0 0.71 1.27 1.24 89 1014.8
20260903081528 16 108 0.0 0.0 1.07 1.27 1.24 88 1015.3
20260903080027 16 108 0.0 0.0 1.22 1.24 1.22 88 1015.4
20260903074521 16 108 0.0 0.0 0.89 0.91 0.89 87 1015.6
20260903073018 16 108 0.0 0.0 0.48 0.51 0.48 86 1016.0
20260903071516 17 108 0.0 0.0 0.15 0.18 0.15 84 1016.3
20260903070015 17 108 0.0 1.6 0.00 0.03 0.00 83 1016.2
20260903064543 17 108 0.0 0.0 0.00 0.03 0.00 83 1016.3
20260903063039 17 108 0.0 0.0 0.00 0.03 0.00 83 1016.7
20260903061506 17 108 0.0 0.0 0.00 0.03 0.00 83 1017.3
20260903060004 17 108 0.0 0.0 0.00 0.03 0.00 83 1017.5
20260903054601 17 108 0.0 0.0 0.00 0.03 0.00 83 1017.7
20260903053030 17 108 0.0 0.0 0.00 0.03 0.00 83 1017.9
20260903051530 17 108 0.0 0.0 0.00 0.03 0.00 82 1017.7
20260903050026 17 108 0.0 0.0 0.00 0.03 0.00 82 1018.1
20260903044524 17 108 0.0 0.0 0.00 0.03 0.00 81 1018.3
20260903043034 17 108 0.0 0.0 0.00 0.03 0.00 81 1018.2
20260903041529 17 108 0.0 0.0 0.00 0.03 0.00 81 1018.3
20260903040021 17 108 0.0 0.0 0.00 0.03 0.00 80 1018.4
20260903034527 17 108 0.0 0.0 0.00 0.03 0.00 80 1018.3
20260903033018 17 108 0.0 0.0 0.00 0.03 0.00 81 1018.3
20260903031515 17 108 0.0 0.0 0.00 0.03 0.00 80 1018.5